カタログに戻る

RESURS O1

運用中科学SSO
NORAD 23342·PAYLOAD·🇷🇺 Russia

打ち上げ Nov 4, 1994 から Baikonur Cosmodrome

Loading…

次のパス (今後24時間)

TLE

最新Source: Space-Track

元期: Sep 14, 2026, 06:47 UTC

1 23342U 94074A   26257.28278089  .00000437  00000-0  56956-4 0  9993
2 23342  97.6622 272.4085 0001986 105.4597 254.6838 14.85176900717159

AllMySatでRESURS O1をリアルタイム追跡

Download on the App Store